Location: Unspecified
(0.0000°N, 0.0000°E)
Time: 19:03:41
(UTC+00:00)

Transit 4A - Pass Details

Date: 21 November 2019
Orbit: 870 x 975 km, 66.8° (Epoch: 08 December)

Event Time Altitude Azimuth Distance (km) Brightness Sun altitude
Rises 07:33:32 0° 347° (NNW) 3,440 10.6 25.2°
Reaches altitude 10° 07:36:01 10° 351° (N) 2,504 9.9 25.8°
Maximum altitude 07:41:43 62° 71° (ENE) 977 8.9 27.1°
Drops below altitude 10° 07:47:29 10° 150° (SSE) 2,536 11.1 28.4°
Sets 07:50:01 0° 154° (SSE) 3,489 11.6 29.0°
